DECAYED
Showing default

MRC-100, 56993 (Decayed)

Orbit data source: Space-Track

MRC-100, 56993 was a payload satellite owned by BME (HU) in LEO that was launched on Mon, 12 Jun 2023 UTC via an FALCON 9 launch vehicle from the Air Force Western Test Range (AFWTR). Payload-class satellites include a variety of spacecraft equipped with specific instruments for various scientific and technological missions. These include communications satellites like Starlink; space stations such as the ISS; scientific satellites like the Hubble; Earth observation satellites from companies like Planet Labs, Umbra, and HawkEye 360; GPS; miniature CubeSats for education and research; and military/defense satellites.

Loading next visibility...
Identifier
56993, 2023-084BV
Orbit
Decayed
Country
Flag of HUHU / HUN
Related business
Manufacturer
BME
Mission
Decayed Amateur Sigint
Bus & Motor
POCKETQUBE 3P, Unknown motor
Mass
0.5 kg wet, 0.5 kg dry
Launch date (UTC)
2023-06-12 (3 years ago)
Launch vehicle
FALCON 9
Launch site
Air Force Western Test Range (AFWTR)
Object type
Payload
Rocket body
Debris
Shape & HBR
Box, 0.1 m
Radar Cross Section
0.009 m², Medium (>0.1 m² and < 1m²)

Expand to show TLE details & history
Last TLE update: 1 year ago

TLE from 1 year ago
0 MRC-100
1 56993U 23084BV  25004.25947094  .12600048  25824-5  83387-3 0  9999
2 56993  97.5134 139.2748 0011223 298.8771  61.1402 16.40581581 87376
Epoch: 2025-01-04T06:13Z
TLE epoch observation values (Epoch: 2025-01-04T06:13:38.289Z)
Latitude
0.00002°
Longitude
-58.247°
Altitude
163.966 km
Speed
7.81 km/s
True Right ascension
09h 17m 05s
True Declination
0° 00' 00"
Sunlit
Object was in full shadow at epoch
Visualization orbit readout
Latitude
Unknown
Longitude
Unknown
Altitude
Unknown
Speed
Unknown
Apparent Right ascension
Unknown
Apparent Declination
Unknown
Sunlit
N/A
Visualization observer readout
Local Sidereal Time
01:57:34
Azimuth
Unknown
Elevation
Unknown
Doppler factor
Unknown
Orbital elements
Apogee altitude
168.407 km
Perigee altitude
153.729 km
Semi-major axis
6,539.205 km
Eccentricity
0.00112
Inclination
97.5134°
RAAN
139.2748°
Arg. of periapsis
298.8771°
True anomaly
61.25291°
Mean anomaly
61.1402°
Eccentric anomaly
61.19655°
Mean motion
4.10446 °/min
Orbital period
87.71 mins
BSTAR
0.00083387
Loading maneuver chart data...
Computing Atmospheric mass density...

Documentation

Showing up to 5 results
|